Regional Weather Roundup
Issued by NWS Charleston, SC

Current Version | Previous Version | Graphics & Text | Print | Product List | Glossary On
Versions: 1 2 3 4 5 6 7 8 9 10 11 12 13 14 15 16 17 18 19 20 21 22 23 24 25 26 27 28 29 30 31 32 33 34 35 36 37 38 39 40 41 42 43 44 45 46 47 48 49 50
000
ASUS42 KCHS 191112
RWRCHS

Regional Weather Roundup
National Weather Service Charleston SC
700 AM EDT THU APR 19 2018

NOTE: "fair" indicates few or no clouds below 12,000 feet with no
significant weather and/or obstructions to visibility.

Not all stations are quality controlled. Use data with caution,
especially dewpoint observations.

SCZ027-030-031-034>040-042>050-191200-
...Southeast South Carolina...

CITY           SKY/WX    TMP DP  RH WIND       PRES   REMARKS
N Charleston   FAIR      65  57  75 SW14      29.92R
Waterfront Prk   N/A     66  57  72 SW7G15    29.76S
Mount Pleasant FAIR      64  57  77 SW10      29.92R
Johns Island   FAIR      64  59  82 SW9       29.93R
Pinopolis        N/A     64  55  72 SW12      29.79S
Moncks Corner  FAIR      63  52  67 SW8G16    29.90R
Summerville    FAIR      63  55  77 SW6       29.92R
Beaufort MCAS  FAIR      64  61  90 SW10      29.95R
Beaufort Arpt  FAIR      63  59  88 SW8       29.96R HAZE
Hilton Head Is CLEAR     64  59  82 SW9       29.97R
Walterboro     FAIR      63  55  77 SW9       29.93R
Allendale      FAIR      64  59  82 VRB5G14   29.92R

...Southern Midlands and Pee Dee...

CITY           SKY/WX    TMP DP  RH WIND       PRES   REMARKS
Georgetown     FAIR      63  55  77 SW10      29.90R
Kingstree      FAIR      63  54  72 SW5       29.86R
Orangeburg     FAIR      64  56  75 SW13      29.89R
Barnwell       FAIR      63  57  82 SW8       29.91R
Aiken          FAIR      61  55  82 SW10G17   29.92R
Manning        FAIR      61  52  72 SW9G16    29.87R
Columbia       FAIR      66  57  72 SW13G20   29.85R
Sumter         FAIR      65  54  68 SW15      29.83R
Florence       FAIR      67  54  63 SW14G22   29.82R
Myrtle Beach   FAIR      66  53  63 W12       29.87R
N Myrtle Beach FAIR      63  56  78 SW10      29.84R

$$

GAZ063-065-086>088-099>101-113>116-118-119-134>141-150-191200-
...Southeast Georgia...

CITY           SKY/WX    TMP DP  RH WIND       PRES   REMARKS
Savannah Arpt  FAIR      64  60  87 W13       29.97R
Hunter AAF     FAIR      64  59  85 SW10      29.95R
Fort Stewart   FAIR      63  59  87 SW10      29.97R
Statesboro     FAIR      65  58  77 SW10      29.96R
Sylvania       FAIR      64  63  94 W7        29.95S
Claxton        FAIR      65  61  86 S5        29.97S

...CSRA, Central and far Southeast Georgia...

CITY           SKY/WX    TMP DP  RH WIND       PRES   REMARKS
Thomson        FAIR      62  58  87 W6        29.95R
Augusta-Bush   FAIR      65  59  81 SW13      29.89R
Augusta-Daniel FAIR      65  59  81 SW8       29.90R
Swainsboro     FAIR      63  61  94 SW7       29.97R
Vidalia        FAIR      63  61  94 SW7       29.99R
Eastman        FAIR      64  55  72 SW6       30.01R
Hazlehurst     FAIR      65  60  82 SW3       29.99R
Alma           FAIR      64  61  90 SW7       30.01R
Waycross       FAIR      61  58  91 SW6       30.03R
Jesup          NOT AVBL
Baxley         FAIR      63  61  94 SW6       30.00S
Brunswick      FAIR      61  59  94 SW9       30.02S
Saint Simons   FAIR      63  61  93 W9        30.02R

$$

SCZ027-028-034-036>038-045-046-048>050-GAZ119-141-191200-
...Lake and Supplemental Coastal Observations...

STATION/POSITION TIME  TEMP    WIND        PRES    WAVE   SWELL
                       AIR SEA DIR/SP/G            HT/PER HT/PER/DIR
                 (UTC) (F)     (DEG/KT/KT) (MB)    (FT/S) (FT/S/D)
Winyah Bay       0945   65     230/  7     1011.0
Lake Murray      1020   66     220/  9/ 13 1009.8
ACE Basin NERRS  0945   64     350/  3       N/A
Fort Pulaski     1042   64 65  250/  8/ 10 1015.2R
Sapelo Island    1000   64     260/ 12     1016.0

$$

ANZ835-935-AMZ111-154-330-350-352-354-370-450-454-472-191200-
...C-MAN and Buoy Observations...

STATION/POSITION TIME  TEMP    WIND        PRES    WAVE   SWELL
                       AIR SEA DIR/SP/G            HT/PER HT/PER/DIR
                 (UTC) (F)     (DEG/KT/KT) (MB)    (FT/S) (FT/S/D)
Buoy 41004       1050   67 67  240/ 21/ 27 1013.6R   6/ 6
Buoy 41008       1050   65 65  230/ 16/ 19 1015.6R   3/ 4   2/ 90/ 8
Folly Beach CMAN 1100   64     230/ 11/ 14 1014.0R
Capers Nearshore 1008   65 63  250/ 16/ 21 1012.9R
Fripp Nearshore  1008   65 64  240/ 14/ 19 1013.7R


STATION/POSITION TIME  TEMP    WIND        PRES    WAVE   SWELL
                       AIR SEA DIR/SP/G            HT/PER HT/PER/DIR
                 (UTC) (F)     (DEG/KT/KT) (MB)    (FT/S) (FT/S/D)
5E St. Marys GA  1100      65                N/A     2/ 4
Frying Pan Buoy  1050   68 66  220/ 23/ 29 1011.3R   7/ 7   3/ 50/15
Buoy 41025       1100   70 69  230/ 25/ 31 1008.6
Cape Lookout NC  1000          230/ 15/ 21 1008.8F
Buoy 41002       1050   71 72  230/ 21/ 25 1016.1R   7/ 6
Buoy 41010       1050   73 74  200/ 14/ 16 1019.1R   3/ 4   2/110/ 9
St Augustine FL  1100   60 66  220/  5/  5 1018.6R


$$




USA.gov is the U.S. government's official web portal to all federal, state and local government web resources and services.